Regional Weather Roundup
Issued by NWS Cleveland, OH

Home | Current Version | Previous Version | Graphics & Text | Print | Product List | Glossary On
Versions: 1 2 3 4 5 6 7 8 9 10 11 12 13 14 15 16 17 18 19 20 21 22 23 24 25 26 27 28 29 30 31 32 33 34 35 36 37 38 39 40 41 42 43 44 45 46 47 48 49 50
000
ASUS41 KCLE 221900
RWRCLE
OHIO REGIONAL WEATHER ROUNDUP
NATIONAL WEATHER SERVICE WILMINGTON, OH
200 PM EST MON DEC 22 2014

NOTE: "FAIR" INDICATES FEW OR NO CLOUDS BELOW 12,000 FEET WITH NO
SIGNIFICANT WEATHER AND/OR OBSTRUCTIONS TO VISIBILITY.

OHZ001>008-015>018-024>027-034-035-043-044-222000-
   NORTHWEST OHIO

CITY           SKY/WX    TMP DP  RH WIND       PRES   REMARKS
DEFIANCE       CLOUDY    37  30  75 E10       29.91F HAZE
FINDLAY        PTSUNNY   40  32  73 SE9       29.92F
TOLEDO EXPRESS CLOUDY    38  29  70 E10       29.92F
TOLEDO METCALF CLOUDY    39  29  67 E7        29.94F
LIMA           CLOUDY    44  34  67 E7        29.90F
$$

OHZ009>014-019>023-028>033-038-089-222000-
   NORTHEAST OHIO

CITY           SKY/WX    TMP DP  RH WIND       PRES   REMARKS
CLE-HOPKINS    PTSUNNY   42  31  64 SE3       30.00F
CLE-LAKEFRONT  MOSUNNY   43  30  60 SE7       29.98F
CUY CO. ARPT   NOT AVBL
LORAIN-ELYRIA  MOSUNNY   40  31  70 S9        29.98F
ASHTABULA      MOSUNNY   41  30  65 SE9       30.02F
AKRON-CANTON   PTSUNNY   43  32  65 S7        29.99F
WOOSTER        NOT AVBL
MANSFIELD      MOSUNNY   42  32  67 SE7       29.95F
YOUNGSTOWN     PTSUNNY   39  29  67 SE13      30.00F
$$

OHZ042-051>053-060>062-070>072-077>081-222000-
  SOUTHWEST OHIO

CITY           SKY/WX    TMP DP  RH WIND       PRES   REMARKS
CINC-COVINGTON CLOUDY    51  36  56 SE9       29.87F
CINC-LUNKEN    CLOUDY    51  37  58 SE6       29.89F
HAMILTON       CLOUDY    50  37  61 E6        29.88F
DAYTON         NOT AVBL
WRIGHT-PAT AFB NOT AVBL
DAYTON GENERAL CLOUDY    48  37  65 E6        29.88F
WILMINGTON     MOSUNNY   47  37  68 E6        29.90F
$$

OHZ036-037-039>041-045>050-054>059-063>069-073>076-082>088-222000-
  CENTRAL AND SOUTHEAST OHIO

CITY           SKY/WX    TMP DP  RH WIND       PRES   REMARKS
COLUMBUS       PTSUNNY   46  33  60 SE6       29.93F
OSU AIRPORT    PTSUNNY   47  33  58 SE8       29.92F
BOLTON FIELD   NOT AVBL
RICKENBACK AFB NOT AVBL
NEWARK         PTSUNNY   47  34  60 NE3       29.95F
MARION         PTSUNNY   44  34  67 SE10      29.94F
LANCASTER      MOSUNNY   63  35  35 E7        29.94F
ZANESVILLE     CLOUDY    49  34  56 SE8       29.96F
NEW PHILLY     PTSUNNY   43  31  62 SE6       30.00F
$$



USA.gov is the U.S. government's official web portal to all federal, state and local government web resources and services.